Location: ?nandapuram
(16.5396°N, 81.1430°E)
Time: 11:10:01
(UTC+00:00)

CENTAUR R/B - Pass Details

Date: 14 April 2026
Orbit: 623 x 1557 km, 63.4° (Epoch: 20 May)

Event Time Altitude Azimuth Distance (km) Brightness Sun altitude
Rises 13:14:25 0° 342° (NNW) 4,519 6.4 -6.4°
Reaches altitude 10° 13:17:21 10° 346° (NNW) 3,618 5.8 -7.1°
Maximum altitude 13:26:29 59° 64° (ENE) 1,755 3.6 -9.2°
Drops below altitude 10° 13:35:41 10° 142° (SE) 3,663 5.0 -11.4°
Enters shadow 13:38:02 - 145° (SE) 4,385 5.4 -11.9°
